DW7285 Weather Reports


time (UTC)temp
F
wind
direction
speed
knots
gust
knots
rain 1hr
in
rain 24hr
in
rain mn
in
humidity
%
barometer
mb
20260505021509 73 231 3.5 8.7 0.00 0.18 0.17 56 1001.5
20260505020008 73 203 1.7 6.1 0.00 0.18 0.17 57 1001.5
20260505014511 74 194 0.9 5.2 0.00 0.18 0.17 57 1001.3
20260505013006 74 240 0.9 4.3 0.00 0.18 0.17 57 1001.2
20260505011504 75 210 1.7 7.8 0.00 0.18 0.17 56 1001.2
20260505010004 75 197 0.9 6.1 0.00 0.18 0.17 56 1001.0
20260505004506 75 64 0.9 5.2 0.00 0.18 0.17 56 1000.8
20260505003002 76 176 1.7 6.1 0.00 0.18 0.17 55 1000.9
20260505001502 76 222 0.0 4.3 0.00 0.18 0.17 58 1000.8
20260505000002 75 79 0.0 5.2 0.00 0.18 0.17 58 1000.8
20260504234600 75 287 0.9 5.2 0.00 0.18 0.17 59 1000.6
20260504233103 74 197 1.7 6.1 0.00 0.18 0.17 61 1000.3
20260504231556 74 228 0.9 4.3 0.00 0.18 0.17 60 1000.8
20260504230054 74 207 0.9 4.3 0.00 0.18 0.17 60 1001.0
20260504224551 75 254 0.0 3.5 0.00 0.18 0.17 60 1001.6
20260504223101 75 274 0.9 5.2 0.00 0.18 0.17 59 1001.8
20260504221547 75 54 0.9 6.1 0.00 0.18 0.17 59 1001.8
20260504220047 76 238 1.7 5.2 0.00 0.18 0.17 58 1001.8
20260504214545 75 198 1.7 7.8 0.00 0.18 0.17 60 1001.8
20260504213045 76 49 1.7 8.7 0.00 0.18 0.17 59 1002.0
20260504211615 76 224 1.7 7.0 0.00 0.18 0.17 60 1002.3
20260504210045 75 266 2.6 8.7 0.00 0.18 0.17 60 1002.4
20260504204539 74 226 1.7 6.1 0.00 0.18 0.17 62 1002.7
20260504203038 75 226 0.9 7.8 0.00 0.18 0.17 64 1002.8
20260504201534 73 187 1.7 8.7 0.00 0.18 0.17 68 1002.9
20260504200031 72 224 1.7 6.1 0.00 0.18 0.17 72 1003.0
20260504194530 68 176 3.5 9.6 0.00 0.18 0.17 75 1002.4
20260504193027 65 207 1.7 8.7 0.01 0.18 0.17 80 1001.8
20260504191527 64 70 0.9 4.3 0.09 0.18 0.17 82 1003.9
20260504190024 63 60 1.7 6.1 0.13 0.18 0.17 84 1003.9
20260504184536 62 277 0.9 2.6 0.14 0.18 0.17 87 1004.2
20260504183022 62 58 0.9 5.2 0.14 0.17 0.16 88 1004.3
20260504181519 62 124 0.0 0.9 0.05 0.08 0.07 90 1005.4
20260504180017 63 236 0.0 0.9 0.02 0.05 0.04 86 1004.9
20260504174516 66 349 0.0 2.6 0.01 0.04 0.03 76 1005.1
20260504173015 67 218 0.0 3.5 0.00 0.03 0.02 69 1004.4
20260504171513 68 203 0.0 1.7 0.00 0.03 0.02 66 1004.8
20260504120138 59 229 0.0 3.5 0.00 0.03 0.02 82 1007.1
20260504081526 61 58 0.0 1.7 0.00 0.03 0.02 77 1007.6
20260504044555 63 236 0.9 4.3 0.01 0.01 0.01 67 1007.4
20260504043058 64 200 0.0 3.5 0.01 0.01 0.01 68 1007.0
20260504041549 66 177 0.9 4.3 0.00 0.00 0.00 58 1008.1
20260504040100 66 190 1.7 7.0 0.00 0.00 0.00 55 1007.8
20260504034547 66 197 1.7 6.1 0.00 0.00 0.00 54 1008.2
20260504033049 67 207 0.9 7.0 0.00 0.00 0.00 53 1008.4
20260504031555 68 160 1.7 5.2 0.00 0.00 0.00 52 1008.5
20260504030045 67 204 0.9 2.6 0.00 0.00 0.00 53 1008.6
20260504024545 67 170 0.0 2.6 0.00 0.00 0.00 54 1008.5
20260504023043 67 212 0.0 2.6 0.00 0.00 0.00 54 1008.5